Zurück zum Katalog

SL-14 R/B

AktivPO
NORAD 21398·ROCKET BODY·🇷🇺 Russia

Gestartet Jun 4, 1991 von Plesetsk Cosmodrome

Loading…

Nächste Überflüge (nächste 24 Stunden)

TLE

AktuellSource: Space-Track

Epoche: Sep 14, 2026, 04:20 UTC

1 21398U 91039B   26257.18118812  .00000238  00000-0  27079-4 0  9999
2 21398  82.5236 320.3710 0019068 265.8444  94.0591 14.81954878882319

Verfolge SL-14 R/B in Echtzeit mit AllMySat

Download on the App Store